User: anonymous
Location: Wildcat Hills Observatory
(41.6350°N, 103.6812°W)
Time: 01:04:26
(UTC-06:00)
Language:

Cosmos 1634 Rocket - Orbit

View from above orbital plane
View from above orbital plane
View from above satellite
View from above satellite

Ground track
Ground track

The orbit data is extracted from the following two-line orbital elements,

1 15598U 85022B   14245.75802854  .00000049  00000-0  34424-4 0  7116
2 15598 082.9392 144.0705 0023539 078.5050 334.5244 13.76489981480352
Epoch (UTC): 02 September 2014 18:11:33
Eccentricity: 0.0023539
inclination: 82.9392°
perigee height: 959 km
apogee height: 993 km
right ascension of ascending node: 144.0705°
argument of perigee: 78.5050°
revolutions per day: 13.76489981
mean anomaly at epoch: 334.5244°
orbit number at epoch: 48035

The dashed part of the orbit path shows where the satellite is in the earth's shadow,  

DLR